,,Stat6,,Stat2,,Stat8,,Stat9,,Stat10,,Wind1,,Wind1,
time,status,PA1M_AVG,status,PR1M_SUM,status,RH1M_AVG,status,SR1M_AVG,status,TA1M_AVG,status,W1dAve1m,status,W1sAve1m,
2005-08-12, 00:00:00,VALID,918.622,VALID,0,VALID,100,VALID,-0.0849042,VALID,19.3368,VALID,14,VALID,0.716974,
2005-08-12, 00:01:00,VALID,918.596,VALID,0,VALID,100,VALID,-0.0849042,VALID,19.337,VALID,7,VALID,0.301235,
2005-08-12, 00:02:00,VALID,918.554,VALID,0,VALID,100,VALID,-0.101885,VALID,19.308,VALID,360,VALID,0.53032,
2005-08-12, 00:03:00,VALID,918.538,VALID,0,VALID,100,VALID,-0.101885,VALID,19.2921,VALID,344,VALID,0.745313,
2005-08-12, 00:04:00,VALID,918.532,VALID,0,VALID,100,VALID,-0.0849042,VALID,19.2787,VALID,308,VALID,0.310683,
2005-08-12, 00:05:00,VALID,918.524,VALID,0,VALID,100,VALID,-0.101885,VALID,19.2692,VALID,347,VALID,0.502418,
2005-08-12, 00:06:00,VALID,918.512,VALID,0,VALID,100,VALID,-0.101885,VALID,19.2888,VALID,355,VALID,0.949041,
2005-08-12, 00:07:00,VALID,918.491,VALID,0,VALID,100,VALID,-0.101885,VALID,19.3082,VALID,22,VALID,1.3016,
2005-08-12, 00:08:00,VALID,918.516,VALID,0,VALID,100,VALID,-0.0849042,VALID,19.3211,VALID,25,VALID,0.560192,
2005-08-12, 00:09:00,VALID,918.522,VALID,0,VALID,100,VALID,-0.0849042,VALID,19.3112,VALID,279,VALID,0.499092,
2005-08-12, 00:10:00,VALID,918.545,VALID,0,VALID,100,VALID,-0.0849042,VALID,19.2913,VALID,226,VALID,0.50266,
2005-08-12, 00:11:00,VALID,918.547,VALID,0,VALID,100,VALID,-0.0849042,VALID,19.2881,VALID,202,VALID,0.384549,
2005-08-12, 00:12:00,VALID,918.575,VALID,0,VALID,100,VALID,-0.101885,VALID,19.3013,VALID,187,VALID,0.046317,
2005-08-12, 00:13:00,VALID,918.606,VALID,0,VALID,100,VALID,-0.101885,VALID,19.3112,VALID,187,VALID,0.00380609,
2005-08-12, 00:14:00,VALID,918.607,VALID,0,VALID,100,VALID,-0.0339617,VALID,19.3169,VALID,187,VALID,0.0161966,
2005-08-12, 00:15:00,VALID,918.617,VALID,0,VALID,100,VALID,0,VALID,19.3189,VALID,187,VALID,0,
2005-08-12, 00:16:00,VALID,918.615,VALID,0,VALID,100,VALID,0,VALID,19.3197,VALID,187,VALID,0.0855564,
2005-08-12, 00:17:00,VALID,918.604,VALID,0,VALID,100,VALID,0,VALID,19.3125,VALID,187,VALID,0.575036,
2005-08-12, 00:18:00,VALID,918.605,VALID,0,VALID,100,VALID,0,VALID,19.342,VALID,61,VALID,0.940727,
2005-08-12, 00:19:00,VALID,918.612,VALID,0,VALID,100,VALID,0.0339617,VALID,19.355,VALID,20,VALID,0.335227,
2005-08-12, 00:20:00,VALID,918.619,VALID,0,VALID,100,VALID,0,VALID,19.3547,VALID,20,VALID,0.0119048,
2005-08-12, 00:21:00,VALID,918.62,VALID,0,VALID,100,VALID,0,VALID,19.3517,VALID,20,VALID,0.200893,
2005-08-12, 00:22:00,VALID,918.64,VALID,0,VALID,100,VALID,0.0339617,VALID,19.3256,VALID,19,VALID,0.683854,
2005-08-12, 00:23:00,VALID,918.646,VALID,0,VALID,100,VALID,0.0169808,VALID,19.2874,VALID,19,VALID,0.734561,
2005-08-12, 00:24:00,VALID,918.659,VALID,0,VALID,100,VALID,0,VALID,19.2578,VALID,19,VALID,0.499092,
2005-08-12, 00:25:00,VALID,918.656,VALID,0,VALID,100,VALID,0.0169808,VALID,19.2842,VALID,19,VALID,0.541941,
2005-08-12, 00:26:00,VALID,918.674,VALID,0,VALID,100,VALID,0.0339617,VALID,19.2867,VALID,18,VALID,0.756138,
2005-08-12, 00:27:00,VALID,918.685,VALID,0,VALID,100,VALID,0,VALID,19.2839,VALID,19,VALID,0.635861,
2005-08-12, 00:28:00,VALID,918.704,VALID,0,VALID,100,VALID,0,VALID,19.2839,VALID,11,VALID,0.29668,
2005-08-12, 00:29:00,VALID,918.703,VALID,0,VALID,100,VALID,0.0169808,VALID,19.2608,VALID,1,VALID,0.326219,
2005-08-12, 00:30:00,VALID,918.714,VALID,0,VALID,100,VALID,0,VALID,19.2648,VALID,1,VALID,0.052689,
2005-08-12, 00:31:00,VALID,918.703,VALID,0.2,VALID,100,VALID,0.0339617,VALID,19.2807,VALID,1,VALID,0.222098,
2005-08-12, 00:32:00,VALID,918.694,VALID,0,VALID,100,VALID,0.0169808,VALID,19.3162,VALID,1,VALID,0.531068,
2005-08-12, 00:33:00,VALID,918.687,VALID,0,VALID,100,VALID,0.0679233,VALID,19.3316,VALID,4,VALID,0.461293,
2005-08-12, 00:34:00,VALID,918.673,VALID,0.2,VALID,100,VALID,0.0169808,VALID,19.3351,VALID,5,VALID,0.393999,
2005-08-12, 00:35:00,VALID,918.635,VALID,0,VALID,100,VALID,0.0169808,VALID,19.3026,VALID,6,VALID,0.49782,
2005-08-12, 00:36:00,VALID,918.612,VALID,0.2,VALID,100,VALID,0.0339617,VALID,19.2966,VALID,10,VALID,0.588368,
2005-08-12, 00:37:00,VALID,918.583,VALID,0,VALID,100,VALID,0.0339617,VALID,19.2569,VALID,10,VALID,0.0621366,
2005-08-12, 00:38:00,VALID,918.543,VALID,0.2,VALID,100,VALID,0,VALID,19.267,VALID,17,VALID,0.629861,
2005-08-12, 00:39:00,VALID,918.543,VALID,0,VALID,100,VALID,0.0169808,VALID,19.267,VALID,34,VALID,0.613554,
2005-08-12, 00:40:00,VALID,918.541,VALID,0,VALID,100,VALID,0,VALID,19.2516,VALID,35,VALID,0.2234,
2005-08-12, 00:41:00,VALID,918.534,VALID,0.2,VALID,100,VALID,0,VALID,19.2611,VALID,35,VALID,0,
2005-08-12, 00:42:00,VALID,918.532,VALID,0,VALID,100,VALID,0.0169808,VALID,19.2645,VALID,35,VALID,0,
2005-08-12, 00:43:00,VALID,918.539,VALID,0,VALID,100,VALID,0.0169808,VALID,19.2449,VALID,35,VALID,0,
2005-08-12, 00:44:00,VALID,918.535,VALID,0.2,VALID,100,VALID,-0.0339617,VALID,19.2461,VALID,20,VALID,0.5266,
2005-08-12, 00:45:00,VALID,918.519,VALID,0,VALID,100,VALID,-0.0509425,VALID,19.2434,VALID,7,VALID,0.977493,
2005-08-12, 00:46:00,VALID,918.507,VALID,0,VALID,100,VALID,-0.0339617,VALID,19.2362,VALID,16,VALID,1.07011,
2005-08-12, 00:47:00,VALID,918.503,VALID,0.2,VALID,100,VALID,-0.0849042,VALID,19.2332,VALID,343,VALID,0.740585,
2005-08-12, 00:48:00,VALID,918.495,VALID,0,VALID,100,VALID,-0.0849042,VALID,19.2007,VALID,310,VALID,0.599848,
2005-08-12, 00:49:00,VALID,918.483,VALID,0,VALID,100,VALID,-0.101885,VALID,19.1719,VALID,310,VALID,0.211664,
2005-08-12, 00:50:00,VALID,918.466,VALID,0.2,VALID,100,VALID,-0.0849042,VALID,19.1756,VALID,310,VALID,0.233103,
2005-08-12, 00:51:00,VALID,918.443,VALID,0,VALID,100,VALID,-0.0849042,VALID,19.192,VALID,285,VALID,0.362305,
2005-08-12, 00:52:00,VALID,918.417,VALID,0,VALID,100,VALID,-0.0849042,VALID,19.189,VALID,195,VALID,0.112793,
2005-08-12, 00:53:00,VALID,918.403,VALID,0.2,VALID,100,VALID,-0.0849042,VALID,19.2084,VALID,195,VALID,0,
2005-08-12, 00:54:00,VALID,918.388,VALID,0,VALID,100,VALID,-0.101885,VALID,19.1984,VALID,195,VALID,0.0876116,
2005-08-12, 00:55:00,VALID,918.377,VALID,0,VALID,100,VALID,-0.0679233,VALID,19.1654,VALID,195,VALID,0.163352,
2005-08-12, 00:56:00,VALID,918.359,VALID,0,VALID,100,VALID,-0.0509425,VALID,19.1686,VALID,195,VALID,0.0046875,
2005-08-12, 00:57:00,VALID,918.359,VALID,0.2,VALID,100,VALID,-0.0849042,VALID,19.1624,VALID,195,VALID,0.00990854,
2005-08-12, 00:58:00,VALID,918.345,VALID,0,VALID,100,VALID,-0.0849042,VALID,19.182,VALID,195,VALID,0.104721,
2005-08-12, 00:59:00,VALID,918.338,VALID,0,VALID,100,VALID,-0.0169808,VALID,19.1813,VALID,195,VALID,0.181734,
2005-08-12, 01:00:00,VALID,918.339,VALID,0,VALID,100,VALID,0.0169808,VALID,19.1607,VALID,195,VALID,0.00603693,
2005-08-12, 01:01:00,VALID,918.341,VALID,0,VALID,100,VALID,0.0169808,VALID,19.1866,VALID,195,VALID,0.756696,
2005-08-12, 01:02:00,VALID,918.335,VALID,0.2,VALID,100,VALID,0,VALID,19.1963,VALID,291,VALID,1.21382,
2005-08-12, 01:03:00,VALID,918.359,VALID,0,VALID,100,VALID,0.0339617,VALID,19.229,VALID,19,VALID,1.27557,
2005-08-12, 01:04:00,VALID,918.376,VALID,0,VALID,100,VALID,0,VALID,19.2325,VALID,19,VALID,1.44306,
2005-08-12, 01:05:00,VALID,918.398,VALID,0,VALID,100,VALID,0.0169808,VALID,19.2352,VALID,16,VALID,1.11413,
2005-08-12, 01:06:00,VALID,918.407,VALID,0,VALID,100,VALID,0,VALID,19.226,VALID,5,VALID,1.02118,
2005-08-12, 01:07:00,VALID,918.424,VALID,0.2,VALID,100,VALID,0.0169808,VALID,19.197,VALID,351,VALID,1.09394,
2005-08-12, 01:08:00,VALID,918.438,VALID,0,VALID,100,VALID,0,VALID,19.187,VALID,16,VALID,1.14005,
2005-08-12, 01:09:00,VALID,918.471,VALID,0,VALID,100,VALID,0.0339617,VALID,19.1903,VALID,354,VALID,0.527439,
2005-08-12, 01:10:00,VALID,918.485,VALID,0,VALID,100,VALID,0.0509425,VALID,19.1771,VALID,351,VALID,0.0940972,
2005-08-12, 01:11:00,VALID,918.5,VALID,0.2,VALID,100,VALID,0.0509425,VALID,19.1838,VALID,351,VALID,0.0457317,
2005-08-12, 01:12:00,VALID,918.496,VALID,0,VALID,100,VALID,0,VALID,19.2029,VALID,355,VALID,0.292333,
2005-08-12, 01:13:00,VALID,918.488,VALID,0.2,VALID,100,VALID,0.0169808,VALID,19.229,VALID,23,VALID,0.933594,
2005-08-12, 01:14:00,VALID,918.488,VALID,0,VALID,100,VALID,-0.0339617,VALID,19.2588,VALID,23,VALID,0.205611,
2005-08-12, 01:15:00,VALID,918.469,VALID,0,VALID,100,VALID,-0.0849042,VALID,19.2662,VALID,23,VALID,0.371911,
2005-08-12, 01:16:00,VALID,918.457,VALID,0.2,VALID,100,VALID,-0.0849042,VALID,19.266,VALID,17,VALID,0.342842,
2005-08-12, 01:17:00,VALID,918.44,VALID,0,VALID,100,VALID,-0.0849042,VALID,19.2203,VALID,13,VALID,0.318452,
2005-08-12, 01:18:00,VALID,918.433,VALID,0,VALID,100,VALID,-0.0849042,VALID,19.2337,VALID,13,VALID,0.279797,
2005-08-12, 01:19:00,VALID,918.413,VALID,0.2,VALID,100,VALID,-0.0849042,VALID,19.2141,VALID,13,VALID,0.024891,
2005-08-12, 01:20:00,VALID,918.399,VALID,0,VALID,100,VALID,-0.101885,VALID,19.2079,VALID,13,VALID,0.137173,
2005-08-12, 01:21:00,VALID,918.39,VALID,0,VALID,100,VALID,-0.0679233,VALID,19.179,VALID,13,VALID,0.0119913,
2005-08-12, 01:22:00,VALID,918.388,VALID,0.2,VALID,100,VALID,-0.0849042,VALID,19.1691,VALID,13,VALID,0.063058,
2005-08-12, 01:23:00,VALID,918.382,VALID,0,VALID,100,VALID,-0.0849042,VALID,19.1694,VALID,13,VALID,0,
2005-08-12, 01:24:00,VALID,918.367,VALID,0,VALID,100,VALID,-0.0679233,VALID,19.1783,VALID,13,VALID,0,
2005-08-12, 01:25:00,VALID,918.336,VALID,0.2,VALID,100,VALID,-0.0849042,VALID,19.1947,VALID,13,VALID,0,
2005-08-12, 01:26:00,VALID,918.331,VALID,0,VALID,100,VALID,-0.0849042,VALID,19.191,VALID,13,VALID,0.119186,
2005-08-12, 01:27:00,VALID,918.343,VALID,0.2,VALID,100,VALID,-0.0849042,VALID,19.2235,VALID,13,VALID,0.145313,
2005-08-12, 01:28:00,VALID,918.351,VALID,0,VALID,100,VALID,-0.0849042,VALID,19.2431,VALID,13,VALID,0.000190549,
2005-08-12, 01:29:00,VALID,918.359,VALID,0.2,VALID,100,VALID,-0.0169808,VALID,19.239,VALID,13,VALID,0.450335,
2005-08-12, 01:30:00,VALID,918.362,VALID,0.2,VALID,100,VALID,0.0169808,VALID,19.2514,VALID,27,VALID,0.386991,
2005-08-12, 01:31:00,VALID,918.341,VALID,0.2,VALID,100,VALID,0.0169808,VALID,19.2549,VALID,28,VALID,0.280692,
2005-08-12, 01:32:00,VALID,918.341,VALID,0,VALID,100,VALID,0,VALID,19.2457,VALID,48,VALID,0.264101,
2005-08-12, 01:33:00,VALID,918.347,VALID,0,VALID,100,VALID,0,VALID,19.236,VALID,48,VALID,0.3254,
2005-08-12, 01:34:00,VALID,918.37,VALID,0.2,VALID,100,VALID,0,VALID,19.2226,VALID,49,VALID,0.347826,
2005-08-12, 01:35:00,VALID,918.351,VALID,0,VALID,100,VALID,0.0169808,VALID,19.19,VALID,49,VALID,0.136446,
2005-08-12, 01:36:00,VALID,918.35,VALID,0,VALID,100,VALID,0.0339617,VALID,19.1937,VALID,49,VALID,0.0950521,
2005-08-12, 01:37:00,VALID,918.36,VALID,0,VALID,100,VALID,0,VALID,19.1803,VALID,39,VALID,0.398247,
2005-08-12, 01:38:00,VALID,918.354,VALID,0,VALID,100,VALID,0.0339617,VALID,19.1935,VALID,48,VALID,0.519159,
2005-08-12, 01:39:00,VALID,918.366,VALID,0.2,VALID,100,VALID,0,VALID,19.1774,VALID,12,VALID,0.347656,
2005-08-12, 01:40:00,VALID,918.368,VALID,0,VALID,100,VALID,0.0169808,VALID,19.1649,VALID,354,VALID,0.380952,
2005-08-12, 01:41:00,VALID,918.34,VALID,0.2,VALID,100,VALID,0,VALID,19.1418,VALID,229,VALID,1.79794,
2005-08-12, 01:42:00,VALID,918.348,VALID,0.4,VALID,100,VALID,0,VALID,19.1066,VALID,292,VALID,0.813281,
2005-08-12, 01:43:00,VALID,918.328,VALID,0.2,VALID,100,VALID,0,VALID,19.1033,VALID,30,VALID,0.396076,
2005-08-12, 01:44:00,VALID,918.311,VALID,0.2,VALID,100,VALID,0,VALID,19.1227,VALID,30,VALID,0.375727,
2005-08-12, 01:45:00,VALID,918.305,VALID,0,VALID,100,VALID,0.0169808,VALID,19.122,VALID,30,VALID,0.397294,
2005-08-12, 01:46:00,VALID,918.291,VALID,0.2,VALID,100,VALID,0.0169808,VALID,19.119,VALID,149,VALID,0.404861,
2005-08-12, 01:47:00,VALID,918.296,VALID,0,VALID,100,VALID,0.0169808,VALID,19.116,VALID,274,VALID,0.252083,
2005-08-12, 01:48:00,VALID,918.303,VALID,0,VALID,100,VALID,0.0339617,VALID,19.1098,VALID,18,VALID,0.478981,
2005-08-12, 01:49:00,VALID,918.313,VALID,0,VALID,100,VALID,0.0169808,VALID,19.1197,VALID,23,VALID,0.00181686,
2005-08-12, 01:50:00,VALID,918.318,VALID,0.2,VALID,100,VALID,0,VALID,19.1066,VALID,25,VALID,0.162574,
2005-08-12, 01:51:00,VALID,918.318,VALID,0,VALID,100,VALID,0,VALID,19.1001,VALID,102,VALID,0.227805,
2005-08-12, 01:52:00,VALID,918.316,VALID,0,VALID,100,VALID,0.0169808,VALID,19.0939,VALID,102,VALID,0.175781,
2005-08-12, 01:53:00,VALID,918.325,VALID,0.2,VALID,100,VALID,0.0169808,VALID,19.0743,VALID,103,VALID,0.18022,
2005-08-12, 01:54:00,VALID,918.334,VALID,0,VALID,100,VALID,0.0339617,VALID,19.071,VALID,103,VALID,0.138207,
2005-08-12, 01:55:00,VALID,918.324,VALID,0.2,VALID,100,VALID,0.0169808,VALID,19.0812,VALID,73,VALID,0.500888,
2005-08-12, 01:56:00,VALID,918.329,VALID,0,VALID,100,VALID,0,VALID,19.071,VALID,52,VALID,0.227493,
2005-08-12, 01:57:00,VALID,918.302,VALID,0.2,VALID,100,VALID,0.0509425,VALID,19.0676,VALID,50,VALID,0.251143,
2005-08-12, 01:58:00,VALID,918.285,VALID,0,VALID,100,VALID,0,VALID,19.0581,VALID,330,VALID,0.352121,
2005-08-12, 01:59:00,VALID,918.275,VALID,0.2,VALID,100,VALID,0,VALID,19.071,VALID,5,VALID,0.869234,
2005-08-12, 02:00:00,VALID,918.281,VALID,0,VALID,100,VALID,0,VALID,19.0616,VALID,10,VALID,0.514898,
2005-08-12, 02:01:00,VALID,918.282,VALID,0,VALID,100,VALID,0,VALID,19.0417,VALID,34,VALID,0.258575,
2005-08-12, 02:02:00,VALID,918.279,VALID,0,VALID,100,VALID,-0.0339617,VALID,19.0489,VALID,31,VALID,0.743359,
2005-08-12, 02:03:00,VALID,918.283,VALID,0.2,VALID,100,VALID,0,VALID,19.0492,VALID,27,VALID,0.535633,
2005-08-12, 02:04:00,VALID,918.281,VALID,0,VALID,100,VALID,-0.0169808,VALID,19.036,VALID,26,VALID,0.457667,
2005-08-12, 02:05:00,VALID,918.279,VALID,0,VALID,100,VALID,0.0169808,VALID,19.0291,VALID,14,VALID,0.995536,
2005-08-12, 02:06:00,VALID,918.284,VALID,0,VALID,100,VALID,0.0339617,VALID,19.0224,VALID,22,VALID,0.775781,
2005-08-12, 02:07:00,VALID,918.286,VALID,0,VALID,100,VALID,0.0169808,VALID,19.0358,VALID,27,VALID,0.983817,
2005-08-12, 02:08:00,VALID,918.276,VALID,0.2,VALID,100,VALID,-0.0169808,VALID,19.039,VALID,31,VALID,0.882813,
2005-08-12, 02:09:00,VALID,918.261,VALID,0,VALID,100,VALID,0.0169808,VALID,19.0323,VALID,30,VALID,1.30711,
2005-08-12, 02:10:00,VALID,918.264,VALID,0.2,VALID,100,VALID,0,VALID,19.0258,VALID,30,VALID,0.6516,
2005-08-12, 02:11:00,VALID,918.273,VALID,0,VALID,100,VALID,0,VALID,19.0256,VALID,41,VALID,0.311942,
2005-08-12, 02:12:00,VALID,918.262,VALID,0,VALID,100,VALID,0,VALID,19.0229,VALID,37,VALID,0.487674,
2005-08-12, 02:13:00,VALID,918.256,VALID,0,VALID,100,VALID,0.0169808,VALID,18.9973,VALID,23,VALID,0.0118056,
2005-08-12, 02:14:00,VALID,918.253,VALID,0.2,VALID,100,VALID,0,VALID,18.9903,VALID,23,VALID,0,
2005-08-12, 02:15:00,VALID,918.223,VALID,0,VALID,100,VALID,0,VALID,18.9903,VALID,49,VALID,0.344993,
2005-08-12, 02:16:00,VALID,918.194,VALID,0,VALID,100,VALID,0,VALID,18.9615,VALID,57,VALID,0.12686,
2005-08-12, 02:17:00,VALID,918.164,VALID,0.2,VALID,100,VALID,0,VALID,18.9712,VALID,57,VALID,0.11319,
2005-08-12, 02:18:00,VALID,918.152,VALID,0,VALID,100,VALID,-0.0169808,VALID,18.971,VALID,46,VALID,0.611471,
2005-08-12, 02:19:00,VALID,918.135,VALID,0,VALID,100,VALID,-0.0169808,VALID,18.9777,VALID,33,VALID,0.532315,
2005-08-12, 02:20:00,VALID,918.132,VALID,0,VALID,100,VALID,0.0169808,VALID,18.9871,VALID,19,VALID,0.424055,
2005-08-12, 02:21:00,VALID,918.111,VALID,0,VALID,100,VALID,0,VALID,18.9906,VALID,10,VALID,0.0686773,
2005-08-12, 02:22:00,VALID,918.121,VALID,0,VALID,100,VALID,0.0169808,VALID,19.0067,VALID,35,VALID,0.229687,
2005-08-12, 02:23:00,VALID,918.119,VALID,0,VALID,100,VALID,0,VALID,19.0035,VALID,255,VALID,0.330171,
2005-08-12, 02:24:00,VALID,918.124,VALID,0,VALID,100,VALID,0,VALID,18.9936,VALID,343,VALID,0.564596,
2005-08-12, 02:25:00,VALID,918.121,VALID,0,VALID,100,VALID,0,VALID,19.0035,VALID,114,VALID,0.308966,
2005-08-12, 02:26:00,VALID,918.13,VALID,0,VALID,100,VALID,-0.0169808,VALID,18.9938,VALID,44,VALID,0.375347,
2005-08-12, 02:27:00,VALID,918.138,VALID,0.2,VALID,100,VALID,0.0169808,VALID,18.9739,VALID,19,VALID,0.400568,
2005-08-12, 02:28:00,VALID,918.172,VALID,0,VALID,100,VALID,0,VALID,18.9774,VALID,42,VALID,0.354725,
2005-08-12, 02:29:00,VALID,918.177,VALID,0,VALID,100,VALID,-0.0169808,VALID,18.9645,VALID,153,VALID,0.352628,
2005-08-12, 02:30:00,VALID,918.173,VALID,0,VALID,100,VALID,0.0169808,VALID,18.9772,VALID,62,VALID,0.510231,
2005-08-12, 02:31:00,VALID,918.176,VALID,0,VALID,100,VALID,0,VALID,18.9873,VALID,19,VALID,0.60026,
2005-08-12, 02:32:00,VALID,918.168,VALID,0,VALID,100,VALID,-0.0169808,VALID,18.9871,VALID,17,VALID,0.364879,
2005-08-12, 02:33:00,VALID,918.161,VALID,0.2,VALID,100,VALID,0.0169808,VALID,18.997,VALID,81,VALID,0.322798,
2005-08-12, 02:34:00,VALID,918.153,VALID,0,VALID,100,VALID,0.0169808,VALID,18.9936,VALID,17,VALID,0.699574,
2005-08-12, 02:35:00,VALID,918.157,VALID,0,VALID,100,VALID,0,VALID,18.9901,VALID,19,VALID,0.276215,
2005-08-12, 02:36:00,VALID,918.14,VALID,0,VALID,100,VALID,0,VALID,18.9871,VALID,6,VALID,0.362614,
2005-08-12, 02:37:00,VALID,918.132,VALID,0,VALID,100,VALID,0,VALID,18.9772,VALID,31,VALID,0.771307,
2005-08-12, 02:38:00,VALID,918.137,VALID,0,VALID,100,VALID,0.0169808,VALID,18.9834,VALID,14,VALID,0.270032,
2005-08-12, 02:39:00,VALID,918.101,VALID,0,VALID,100,VALID,0.0339617,VALID,18.9839,VALID,7,VALID,0.971726,
2005-08-12, 02:40:00,VALID,918.124,VALID,0,VALID,100,VALID,-0.0169808,VALID,18.9315,VALID,336,VALID,0.775254,
2005-08-12, 02:41:00,VALID,918.114,VALID,0,VALID,100,VALID,0.0169808,VALID,18.9518,VALID,27,VALID,0.833576,
2005-08-12, 02:42:00,VALID,918.113,VALID,0,VALID,100,VALID,0.0849042,VALID,18.9539,VALID,32,VALID,0.531613,
2005-08-12, 02:43:00,VALID,918.119,VALID,0,VALID,100,VALID,0,VALID,18.967,VALID,33,VALID,0.0844494,
2005-08-12, 02:44:00,VALID,918.12,VALID,0,VALID,100,VALID,-0.0679233,VALID,18.9751,VALID,36,VALID,0.240007,
2005-08-12, 02:45:00,VALID,918.137,VALID,0,VALID,100,VALID,-0.0849042,VALID,18.9622,VALID,36,VALID,0.45419,
2005-08-12, 02:46:00,VALID,918.143,VALID,0.2,VALID,100,VALID,-0.0679233,VALID,18.9722,VALID,24,VALID,0.180273,
2005-08-12, 02:47:00,VALID,918.169,VALID,0,VALID,100,VALID,-0.0679233,VALID,18.9851,VALID,24,VALID,0.00106534,
2005-08-12, 02:48:00,VALID,918.163,VALID,0,VALID,100,VALID,-0.0339617,VALID,18.9913,VALID,57,VALID,0.677344,
2005-08-12, 02:49:00,VALID,918.174,VALID,0,VALID,100,VALID,-0.101885,VALID,19.0012,VALID,28,VALID,0.55888,
2005-08-12, 02:50:00,VALID,918.19,VALID,0,VALID,100,VALID,-0.101885,VALID,19.0241,VALID,61,VALID,0.183771,
2005-08-12, 02:51:00,VALID,918.199,VALID,0,VALID,100,VALID,-0.101885,VALID,18.9985,VALID,166,VALID,0.271076,
2005-08-12, 02:52:00,VALID,918.212,VALID,0,VALID,100,VALID,-0.101885,VALID,19.0014,VALID,92,VALID,0.729226,
2005-08-12, 02:53:00,VALID,918.21,VALID,0,VALID,100,VALID,-0.0849042,VALID,19.0049,VALID,27,VALID,1.37253,
2005-08-12, 02:54:00,VALID,918.215,VALID,0,VALID,100,VALID,-0.101885,VALID,19.0111,VALID,21,VALID,0.830433,
2005-08-12, 02:55:00,VALID,918.215,VALID,0,VALID,100,VALID,-0.0849042,VALID,19.0208,VALID,15,VALID,0.321555,
2005-08-12, 02:56:00,VALID,918.202,VALID,0,VALID,100,VALID,-0.101885,VALID,19.0109,VALID,16,VALID,0.580412,
2005-08-12, 02:57:00,VALID,918.183,VALID,0,VALID,100,VALID,-0.101885,VALID,19.0079,VALID,12,VALID,0.356534,
2005-08-12, 02:58:00,VALID,918.171,VALID,0,VALID,100,VALID,-0.101885,VALID,18.989,VALID,12,VALID,0.603693,
2005-08-12, 02:59:00,VALID,918.159,VALID,0,VALID,100,VALID,0,VALID,18.9876,VALID,17,VALID,0.858259,
2005-08-12, 03:00:00,VALID,918.143,VALID,0,VALID,100,VALID,0,VALID,18.997,VALID,18,VALID,0.294071,
2005-08-12, 03:01:00,VALID,918.139,VALID,0,VALID,100,VALID,0.0169808,VALID,18.9899,VALID,18,VALID,0.226162,
2005-08-12, 03:02:00,VALID,918.116,VALID,0,VALID,100,VALID,0.0169808,VALID,19,VALID,19,VALID,1.0668,
2005-08-12, 03:03:00,VALID,918.116,VALID,0,VALID,100,VALID,0.0339617,VALID,18.9903,VALID,19,VALID,0.787729,
2005-08-12, 03:04:00,VALID,918.105,VALID,0,VALID,100,VALID,0.0509425,VALID,18.9839,VALID,21,VALID,0.91673,
2005-08-12, 03:05:00,VALID,918.1,VALID,0,VALID,100,VALID,0.0169808,VALID,18.9936,VALID,41,VALID,0.525436,
2005-08-12, 03:06:00,VALID,918.111,VALID,0.2,VALID,100,VALID,-0.0169808,VALID,18.9804,VALID,70,VALID,0.0637718,
2005-08-12, 03:07:00,VALID,918.114,VALID,0,VALID,100,VALID,0.0169808,VALID,18.9742,VALID,54,VALID,0.176736,
2005-08-12, 03:08:00,VALID,918.102,VALID,0,VALID,100,VALID,0,VALID,18.9576,VALID,38,VALID,0.69478,
2005-08-12, 03:09:00,VALID,918.118,VALID,0,VALID,100,VALID,0,VALID,18.9484,VALID,13,VALID,0.389672,
2005-08-12, 03:10:00,VALID,918.098,VALID,0,VALID,100,VALID,0,VALID,18.9486,VALID,4,VALID,0.313453,
2005-08-12, 03:11:00,VALID,918.089,VALID,0,VALID,100,VALID,0,VALID,18.9387,VALID,353,VALID,0.72202,
2005-08-12, 03:12:00,VALID,918.086,VALID,0,VALID,100,VALID,0,VALID,18.9387,VALID,22,VALID,1.15777,
2005-08-12, 03:13:00,VALID,918.091,VALID,0,VALID,100,VALID,0,VALID,18.9322,VALID,25,VALID,1.04652,
2005-08-12, 03:14:00,VALID,918.083,VALID,0,VALID,100,VALID,0.0339617,VALID,18.9255,VALID,25,VALID,0.888021,
2005-08-12, 03:15:00,VALID,918.088,VALID,0,VALID,100,VALID,0.0169808,VALID,18.9193,VALID,12,VALID,0.770531,
2005-08-12, 03:16:00,VALID,918.078,VALID,0,VALID,100,VALID,0.0169808,VALID,18.9161,VALID,13,VALID,0.627976,
2005-08-12, 03:17:00,VALID,918.064,VALID,0,VALID,100,VALID,0,VALID,18.9191,VALID,16,VALID,0.581214,
2005-08-12, 03:18:00,VALID,918.063,VALID,0,VALID,100,VALID,0,VALID,18.9357,VALID,24,VALID,1.27716,
2005-08-12, 03:19:00,VALID,918.053,VALID,0,VALID,100,VALID,0.0169808,VALID,18.9419,VALID,23,VALID,1.33594,
2005-08-12, 03:20:00,VALID,918.051,VALID,0,VALID,100,VALID,0,VALID,18.9484,VALID,21,VALID,1.35469,
2005-08-12, 03:21:00,VALID,918.046,VALID,0,VALID,100,VALID,0.0169808,VALID,18.9449,VALID,14,VALID,0.87429,
2005-08-12, 03:22:00,VALID,918.03,VALID,0,VALID,100,VALID,0,VALID,18.9295,VALID,18,VALID,0.825838,
2005-08-12, 03:23:00,VALID,918.024,VALID,0,VALID,100,VALID,0.0169808,VALID,18.9098,VALID,21,VALID,0.941315,
2005-08-12, 03:24:00,VALID,918.011,VALID,0,VALID,100,VALID,0.0339617,VALID,18.8999,VALID,27,VALID,1.07207,
2005-08-12, 03:25:00,VALID,918.017,VALID,0,VALID,100,VALID,0.0339617,VALID,18.8935,VALID,12,VALID,0.710747,
2005-08-12, 03:26:00,VALID,918.02,VALID,0,VALID,100,VALID,0.0169808,VALID,18.8962,VALID,20,VALID,0.535156,
2005-08-12, 03:27:00,VALID,918.038,VALID,0,VALID,100,VALID,0.0169808,VALID,18.9198,VALID,18,VALID,0.634301,
2005-08-12, 03:28:00,VALID,918.043,VALID,0,VALID,100,VALID,0,VALID,18.9098,VALID,18,VALID,0.704033,
2005-08-12, 03:29:00,VALID,918.046,VALID,0,VALID,100,VALID,0,VALID,18.9287,VALID,18,VALID,0.53125,
2005-08-12, 03:30:00,VALID,918.055,VALID,0,VALID,100,VALID,0,VALID,18.9458,VALID,10,VALID,0.261083,
2005-08-12, 03:31:00,VALID,918.058,VALID,0,VALID,100,VALID,0,VALID,18.9486,VALID,7,VALID,0.00186012,
2005-08-12, 03:32:00,VALID,918.069,VALID,0.2,VALID,100,VALID,0,VALID,18.9191,VALID,7,VALID,0.0496003,
2005-08-12, 03:33:00,VALID,918.063,VALID,0,VALID,100,VALID,0,VALID,18.9094,VALID,7,VALID,0.21657,
2005-08-12, 03:34:00,VALID,918.075,VALID,0,VALID,100,VALID,0.0169808,VALID,18.887,VALID,7,VALID,0.0234375,
2005-08-12, 03:35:00,VALID,918.054,VALID,0,VALID,100,VALID,0.0169808,VALID,18.8771,VALID,7,VALID,0.00186012,
2005-08-12, 03:36:00,VALID,918.046,VALID,0,VALID,100,VALID,0,VALID,18.8905,VALID,7,VALID,0.115412,
2005-08-12, 03:37:00,VALID,918.038,VALID,0,VALID,100,VALID,0,VALID,18.8937,VALID,7,VALID,0.202172,
2005-08-12, 03:38:00,VALID,918.017,VALID,0,VALID,100,VALID,0,VALID,18.9101,VALID,7,VALID,0.603795,
2005-08-12, 03:39:00,VALID,918.013,VALID,0,VALID,100,VALID,0,VALID,18.9198,VALID,8,VALID,0.3254,
2005-08-12, 03:40:00,VALID,918.004,VALID,0,VALID,100,VALID,0,VALID,18.9064,VALID,8,VALID,0.0166903,
2005-08-12, 03:41:00,VALID,918.004,VALID,0,VALID,100,VALID,0.0169808,VALID,18.9064,VALID,8,VALID,0.0784801,
2005-08-12, 03:42:00,VALID,918.008,VALID,0,VALID,100,VALID,0,VALID,18.9096,VALID,8,VALID,0.256696,
2005-08-12, 03:43:00,VALID,918.009,VALID,0,VALID,100,VALID,0,VALID,18.9133,VALID,8,VALID,0,